Theta_e
307 307 307 307 307 308 308 308 308 309 309 308 306 306 309 306 301 304 308 305 308 310 312 314 325 320 318 324 329 322 320 319 322 324 325 326 330 331 328 329 329 330 329 330 331
307 307 307 307 307 307 307 308 307 308 305 304 302 301 304 303 306 308 303 305 305 309 312 315 316 320 325 327 330 331 326 321 320 322 323 322 325 326 327 328 330 330 330 330 330
307 308 307 307 307 307 308 308 308 308 303 302 302 302 305 304 308 308 314 312 314 307 314 316 315 315 320 328 330 332 334 326 323 324 323 322 323 324 325 326 328 331 329 328 329
306 307 307 306 306 303 302 303 307 308 307 302 303 305 308 307 299 313 308 305 312 315 314 315 312 313 314 318 326 331 331 334 333 331 327 324 323 324 324 325 326 326 326 328 328
306 307 306 303 302 301 301 300 300 300 304 307 307 308 308 307 309 303 305 302 306 320 315 313 312 311 311 312 314 318 327 327 327 327 328 327 327 325 325 325 326 326 325 324 324
305 305 303 302 302 302 301 301 301 301 302 306 308 308 306 307 302 301 303 306 307 308 316 311 311 310 311 312 313 315 318 322 324 323 324 325 326 326 327 327 327 325 324 323 322
305 304 302 302 301 301 301 301 300 301 305 307 308 309 308 307 303 302 303 303 304 305 306 312 312 312 312 313 313 314 315 316 317 320 324 324 325 325 325 325 325 324 324 323 322
306 304 304 304 306 306 301 300 305 306 307 309 310 309 309 307 307 305 305 306 306 307 308 308 309 311 313 314 316 317 316 317 318 318 319 323 327 326 324 324 324 324 325 325 324
304 301 301 303 305 304 301 304 308 308 308 308 310 309 310 309 309 310 308 306 307 308 308 309 309 308 311 313 315 315 319 317 318 318 320 321 323 324 325 325 324 324 324 325 325
300 300 301 305 303 304 304 307 308 311 310 311 311 312 309 310 311 311 311 308 308 308 308 308 306 308 308 311 318 317 318 318 319 319 320 320 321 321 322 322 323 323 324 324 325
300 300 301 301 302 306 307 307 305 305 305 307 305 307 307 306 305 310 310 308 308 309 306 307 306 308 309 311 313 317 318 319 319 319 320 321 322 322 322 323 322 322 323 324 324
300 300 301 301 304 307 308 307 306 305 304 306 306 307 307 306 306 306 307 307 306 306 307 308 308 308 310 312 313 313 315 317 316 317 320 320 321 321 322 323 323 323 323 322 322
300 300 301 303 306 307 308 307 307 307 305 305 307 310 309 307 307 307 307 307 306 306 306 307 309 310 310 311 313 314 314 315 316 316 315 316 318 319 319 319 320 321 322 321 322
301 300 301 303 307 307 308 307 307 307 305 308 309 308 308 307 307 307 307 307 307 305 305 305 305 306 308 311 311 314 314 315 315 316 317 317 319 318 318 319 319 320 319 319 321
301 301 302 304 306 306 307 307 307 305 307 307 309 308 308 308 309 310 310 308 306 307 305 305 306 306 307 309 312 312 315 315 316 316 315 316 317 318 319 320 320 320 321 320 320
301 301 303 305 306 308 308 307 307 306 306 307 307 306 307 308 308 309 309 311 311 307 306 306 306 306 306 307 307 309 313 314 315 314 316 316 316 317 317 319 320 320 320 321 320
301 302 305 305 306 308 308 305 304 305 307 307 307 306 305 308 307 309 309 310 312 316 314 311 311 309 308 308 308 307 309 312 315 316 318 316 316 317 317 318 319 319 320 320 321
302 302 308 310 308 309 307 304 304 310 310 308 308 307 305 308 307 309 310 310 310 311 308 308 308 312 313 311 307 305 306 311 315 318 317 316 317 317 317 317 318 319 320 331 335
303 305 307 310 308 308 302 304 306 310 307 308 308 306 306 306 309 308 310 311 311 312 313 314 313 311 310 310 309 310 306 307 311 313 316 317 317 317 317 317 317 318 330 335 334
303 306 308 310 308 308 303 308 308 307 307 308 310 307 307 307 308 309 310 311 312 312 309 310 312 310 310 309 309 311 311 310 309 314 315 318 318 318 320 319 319 318 332 335 336
306 306 310 308 308 303 302 307 308 306 307 308 309 308 308 308 308 309 310 310 310 310 310 310 310 310 311 310 309 310 311 308 309 312 316 318 318 316 317 319 322 320 335 337 337
303 308 309 307 304 303 303 307 307 307 308 308 307 307 308 309 309 309 309 310 310 309 311 311 311 315 311 309 311 311 311 313 312 310 314 316 318 317 318 318 321 334 337 336 335
303 304 309 308 302 301 305 308 308 308 309 308 308 307 307 308 309 309 310 309 309 311 311 311 309 311 308 310 314 313 316 317 314 311 313 316 317 317 317 320 327 335 335 336 335
302 307 302 300 302 305 306 309 310 309 309 308 308 307 308 309 308 309 309 309 309 311 312 311 309 311 308 312 313 315 316 315 317 318 314 314 316 316 317 321 334 335 336 335 337
302 303 304 303 305 305 305 308 310 311 310 308 309 308 310 310 309 309 309 309 311 312 311 311 313 312 313 313 314 317 316 315 316 317 319 318 318 317 317 319 334 335 335 336 337
303 305 306 306 305 305 306 308 310 310 309 310 309 309 309 311 311 311 311 309 309 311 311 311 311 314 313 314 315 316 316 315 314 315 315 316 318 318 333 332 334 336 336 337 337
303 304 305 307 307 307 306 309 309 309 309 309 308 308 309 310 310 309 309 309 307 306 307 311 312 314 314 316 316 318 316 315 313 316 318 319 318 319 336 337 333 335 336 336 336
Wind_Speed
14 15 15 15 16 18 19 20 20 20 20 21 21 21 21 23 26 20 11 21 14 18 16 4 6 10 11 4 5 7 0 5 6 6 7 9 7 26 2 9 2 3 6 11 11
15 15 16 16 16 17 19 20 20 20 21 22 23 24 26 27 27 15 31 31 26 20 12 13 6 7 4 6 4 5 7 9 9 5 5 5 6 15 19 10 7 7 4 13 6
17 17 18 18 19 19 18 17 18 19 21 22 23 24 25 25 7 8 8 11 9 27 25 11 11 4 6 6 7 6 14 13 14 11 10 11 12 6 17 16 8 4 8 7 8
19 20 21 22 22 22 22 21 19 18 19 21 21 22 24 9 7 1 4 18 19 15 22 13 6 6 6 11 10 14 15 16 16 17 14 16 14 16 15 18 12 10 8 6 7
21 22 23 24 25 25 25 25 26 25 22 19 19 17 11 3 10 26 29 33 23 6 25 10 10 7 7 6 6 20 20 15 13 16 20 19 21 20 23 18 16 11 8 8 8
22 24 25 27 27 28 28 29 29 29 27 22 16 11 8 12 18 22 23 19 19 11 17 13 6 7 4 5 9 4 6 13 17 19 19 19 22 20 22 19 21 14 12 11 10
24 25 27 28 30 29 29 31 32 30 25 19 15 10 11 19 18 28 27 29 29 19 5 16 19 5 6 4 10 11 10 14 20 12 17 16 26 28 21 21 19 15 12 11 11
24 26 28 29 29 29 30 31 30 28 23 14 7 5 8 30 31 33 27 25 20 17 18 19 10 5 4 5 6 3 4 17 21 18 10 8 35 20 11 15 20 17 18 18 14
25 29 30 31 31 30 28 26 26 22 12 3 4 5 10 13 9 17 19 16 10 14 10 11 6 7 3 3 1 7 17 20 26 6 4 11 39 15 14 17 13 11 14 15 19
28 30 32 30 28 28 22 23 18 12 11 1 2 3 7 8 8 29 17 10 10 4 4 2 3 6 4 6 18 9 19 19 16 6 13 18 36 21 18 19 22 22 23 20 20
30 32 34 29 25 23 20 16 8 3 12 2 18 18 24 53 44 32 20 13 7 3 6 4 4 18 27 16 8 10 11 10 5 10 11 22 24 21 17 16 12 13 17 19 19
30 31 33 25 24 14 10 4 10 10 10 14 16 19 35 39 26 31 32 7 2 7 5 4 19 12 9 6 10 14 16 19 6 9 15 18 28 24 23 22 19 21 20 17 15
31 31 30 25 17 11 13 14 24 17 3 9 17 15 14 6 21 26 15 12 11 9 6 11 6 8 15 12 16 16 19 12 8 12 22 9 19 8 15 11 10 10 15 10 12
32 32 29 27 4 18 11 21 21 13 2 5 8 6 12 1 3 26 27 13 9 11 9 10 11 14 14 16 18 19 12 13 16 13 13 8 19 22 14 22 16 12 11 12 14
32 34 28 16 12 8 16 23 20 2 4 13 10 7 10 12 17 9 16 17 23 20 7 11 9 4 14 17 15 19 10 16 13 8 15 16 6 25 10 16 17 15 14 11 11
35 30 25 5 11 13 21 24 2 5 3 9 7 16 13 13 14 5 6 15 11 19 17 14 11 14 12 12 11 6 9 15 12 2 8 14 11 9 14 15 8 9 9 11 11
37 27 15 14 5 16 22 7 5 4 10 10 14 18 8 8 12 10 6 2 1 5 6 7 13 11 12 12 10 4 1 3 2 5 16 12 10 21 9 8 15 16 15 14 8
33 22 12 14 17 16 13 5 7 4 5 12 14 22 6 7 6 13 10 7 5 6 7 5 5 6 2 1 7 7 9 5 7 4 4 12 9 7 16 20 26 21 18 4 5
30 14 8 5 6 7 5 5 4 0 10 7 16 9 8 10 3 8 6 3 6 9 5 5 3 6 9 6 4 4 10 5 6 15 1 5 8 9 19 24 21 19 8 8 8
19 9 6 4 2 5 4 2 2 6 9 12 3 4 9 10 7 6 5 2 7 5 5 4 4 4 6 6 4 7 5 5 3 7 6 5 6 8 7 11 12 12 10 8 8
6 4 2 5 1 4 2 5 8 13 10 6 2 4 14 9 7 8 3 4 4 4 5 3 2 4 4 4 6 3 1 3 3 4 8 3 6 11 11 13 18 8 14 16 14
9 2 2 3 3 1 1 8 10 12 12 4 5 4 5 7 4 4 1 3 8 5 5 2 1 3 8 11 12 4 6 5 3 6 5 2 12 17 8 12 12 14 16 13 13
5 3 6 4 3 4 5 9 9 13 17 7 4 4 2 3 5 6 3 5 5 1 2 3 2 4 9 2 0 4 3 2 4 5 16 8 8 12 3 12 5 18 15 15 14
3 4 4 4 2 1 6 5 9 10 13 13 11 3 7 5 4 6 10 5 5 5 7 2 3 5 5 5 7 6 9 6 1 3 11 16 15 25 16 13 3 13 16 17 16
1 2 1 4 6 8 6 8 16 10 3 9 4 9 1 5 4 3 7 10 1 9 3 3 5 6 12 16 17 14 15 10 9 8 4 6 14 17 14 11 14 16 17 18 17
3 3 3 6 6 5 5 3 12 15 11 8 8 17 9 5 9 13 6 4 8 8 8 8 4 4 16 18 18 18 14 14 13 12 11 18 21 18 13 1 12 18 20 18 18
5 4 2 5 4 5 3 14 14 16 8 12 12 14 9 11 10 15 18 17 11 9 8 8 4 2 7 14 8 6 13 11 5 8 4 7 6 14 6 8 5 13 18 19 18
Wind_Direction
359 356 351 348 341 337 335 332 332 329 327 325 325 325 324 323 317 307 239 247 245 256 236 245 246 232 222 246 222 150 171 232 237 213 248 83 59 287 342 337 193 162 145 182 225
357 353 348 341 338 332 332 330 330 327 327 325 324 325 327 331 321 265 275 270 258 239 213 218 222 209 198 208 237 174 189 229 230 266 297 345 132 271 303 308 307 307 196 337 319
353 345 342 337 334 330 325 322 322 323 325 325 323 325 326 338 307 249 60 20 313 233 230 214 232 199 216 219 210 218 228 212 251 271 286 283 280 223 284 282 257 249 295 297 292
348 344 341 338 336 335 334 329 321 317 317 318 318 323 326 337 269 144 68 351 330 249 226 211 211 190 201 216 229 259 246 238 249 262 272 263 276 275 255 266 252 247 231 249 231
348 344 340 339 336 334 331 329 327 324 318 312 314 318 330 288 257 256 281 300 318 238 206 200 202 168 196 211 228 253 255 252 253 251 254 265 265 263 274 275 265 259 258 255 252
348 344 341 339 336 332 327 323 321 319 315 311 307 304 275 269 266 279 291 299 290 323 207 194 205 198 261 221 219 296 276 262 252 253 258 260 266 267 270 275 282 282 281 280 258
347 346 343 341 337 332 326 321 320 317 310 302 297 291 261 256 264 288 279 278 277 287 282 237 223 185 189 280 250 264 285 282 260 251 253 261 261 252 258 269 271 273 273 270 260
337 340 338 333 327 324 327 327 328 327 318 297 280 276 266 274 286 282 280 280 272 271 252 265 268 228 208 280 315 262 248 247 248 244 247 267 262 257 259 252 256 261 271 266 260
341 345 340 334 328 332 332 333 337 333 340 314 172 179 262 298 251 282 262 239 262 271 243 263 228 188 243 177 275 207 237 234 250 221 228 212 263 255 236 252 263 263 265 268 276
346 343 340 331 335 343 336 343 6 57 30 121 219 298 269 294 281 329 286 229 231 270 334 222 221 206 181 178 215 211 219 233 254 210 216 235 261 257 264 267 268 270 268 270 267
344 342 342 341 343 340 328 339 5 339 314 239 282 256 267 278 282 291 303 333 261 155 189 240 193 221 217 225 275 269 262 253 244 199 218 241 262 258 250 252 258 265 269 261 261
345 342 341 339 339 330 332 301 339 308 306 319 289 287 264 261 272 282 285 289 227 240 184 222 232 247 274 269 229 244 265 264 301 276 216 243 251 263 265 262 256 259 260 255 248
344 342 343 334 336 348 331 331 341 349 318 308 311 302 310 211 236 255 264 273 262 242 216 216 227 246 246 252 248 242 234 261 265 296 292 300 281 247 261 257 255 256 253 250 242
343 342 341 337 337 332 309 335 337 342 16 274 327 287 326 327 254 226 254 251 248 236 222 254 244 248 261 234 234 249 251 241 248 261 266 217 280 259 262 267 262 245 248 251 266
342 340 337 339 288 300 315 334 330 61 7 343 305 280 308 14 346 352 310 229 232 240 187 226 281 263 228 242 234 250 255 232 252 238 248 248 274 267 208 250 252 253 245 251 253
339 337 333 322 296 300 331 326 27 46 314 316 317 334 358 2 358 337 337 5 340 220 222 232 219 247 250 260 259 290 231 243 260 224 254 228 220 275 237 240 245 241 270 262 261
336 335 321 292 262 319 326 347 40 80 331 342 326 329 321 337 349 4 352 103 285 5 310 280 246 228 236 255 264 240 143 233 230 197 234 183 218 240 270 249 242 249 250 258 261
337 334 317 287 297 303 328 47 64 3 287 312 320 316 339 358 346 337 355 353 4 224 234 213 258 192 20 41 227 187 171 183 193 200 277 240 241 240 236 257 256 252 253 163 146
335 335 307 298 303 275 55 44 209 232 299 298 331 337 332 335 300 353 350 305 10 26 15 7 228 341 324 318 112 318 216 194 276 277 301 233 268 275 258 266 262 252 168 176 153
335 333 290 153 246 32 67 275 254 277 310 322 19 255 320 319 336 345 320 342 357 355 35 332 304 256 309 347 246 191 258 163 215 217 240 255 252 236 252 284 277 251 174 153 134
5 13 308 184 223 52 131 237 292 323 329 302 260 279 322 322 317 319 321 292 322 326 358 348 208 285 338 227 229 351 226 198 173 195 219 299 255 244 250 267 279 198 165 153 150
348 5 194 220 34 63 316 295 318 314 334 295 292 294 331 330 297 290 294 248 306 347 318 314 265 275 250 248 262 244 253 172 205 250 249 210 265 260 271 282 269 163 155 144 147
333 278 24 356 50 311 297 319 302 329 333 307 282 320 251 321 325 303 315 269 299 254 346 337 312 308 310 268 207 224 111 6 270 231 245 216 257 263 340 328 326 148 148 145 134
344 349 330 28 162 277 317 310 321 313 310 332 303 313 332 310 239 277 299 301 333 178 336 337 217 226 243 305 332 282 290 305 352 269 245 236 264 259 280 305 113 141 143 142 141
43 282 214 308 322 321 305 288 322 333 316 305 294 325 320 301 294 278 321 328 80 134 157 181 235 251 270 269 270 252 263 269 254 256 258 287 271 290 274 270 185 158 143 140 145
27 357 352 287 278 300 309 322 315 323 327 308 304 303 292 241 266 284 253 252 269 205 178 185 243 259 290 275 247 239 231 237 241 264 260 264 278 269 339 212 146 160 147 147 152
352 307 252 267 290 307 263 325 309 325 300 295 302 314 299 279 288 284 275 249 226 223 208 179 211 261 274 315 188 227 236 237 197 190 198 253 254 309 38 359 344 156 151 153 157